Regional Weather Roundup
Issued by NWS

Home | Current Version | Previous Version | Text Only | Print | Product List | Glossary Off
Versions: 1 2 3 4 5 6 7 8 9 10 11 12 13 14 15 16 17 18 19 20 21 22 23 24 25 26 27 28 29 30 31 32 33 34 35 36 37 38 39 40 41 42 43 44 45 46 47 48 49 50

000
ASUS43 KOAX 310010
RWRNE

WEATHER ROUNDUP FOR NEBRASKA
NATIONAL WEATHER SERVICE OMAHA NE
700 PM CDT MON MAY 30 2016

NOTES: SATELLITE DATA IS BEING USED TO AUGMENT CLOUD COVER ABOVE
       12000 FEET.
       "FAIR" INDICATES FEW OR NO CLOUDS BELOW 12,000 FEET WITH NO
       SIGNIFICANT WEATHER AND/OR OBSTRUCTIONS TO VISIBILITY.

  * THESE STATIONS DO NOT REPORT WEATHER SUCH AS RAIN...SNOW OR FOG.

NEZ001>004-019>022-054>056-310100-
NEBRASKA PANHANDLE

CITY           SKY/WX    TMP DP  RH WIND       PRES   REMARKS
SCOTTSBLUFF    CLOUDY    71  46  40 SW8       29.92R
6HR MIN TEMP:  66; 6HR MAX TEMP:  80; 6HR PCP: TRACE;

ALLIANCE       CLOUDY    69  46  43 SW12      29.89R
6HR MIN TEMP:  68; 6HR MAX TEMP:  80;

CHADRON        CLOUDY    76  41  28 NW15G23   29.87R
6HR MIN TEMP:  75; 6HR MAX TEMP:  83;

KIMBALL        CLOUDY    68  45  43 N8        29.97R
SIDNEY         CLOUDY    59  52  77 S6        29.95F
6HR MIN TEMP:  56; 6HR MAX TEMP:  80; 6HR PCP:  0.23;

$$

NEZ057>060-069>072-079>082-310100-
SOUTHWEST NEBRASKA

CITY           SKY/WX    TMP DP  RH WIND       PRES   REMARKS
NORTH PLATTE   CLOUDY    76  61  59 S7        29.81F
6HR MIN TEMP:  76; 6HR MAX TEMP:  81;

IMPERIAL         N/A     60  52  74 NW32G47   29.94R THUNDER
LEXINGTON      SUNNY     79  55  43 S17       29.82F
MCCOOK         CLOUDY    79  57  46 S12       29.81F
6HR MIN TEMP:  78; 6HR MAX TEMP:  83;

OGALLALA       CLOUDY    59  52  76 CALM      29.94R
$$

NEZ005>010-023>029-035>040-094-310100-
NORTH CENTRAL NEBRASKA

CITY           SKY/WX    TMP DP  RH WIND       PRES   REMARKS
VALENTINE      CLOUDY    60  52  74 E9        29.79F
6HR MIN TEMP:  59; 6HR MAX TEMP:  83; 6HR PCP:  0.53;

AINSWORTH      LGT RAIN  73  56  56 S10       29.80S
BROKEN BOW     SUNNY     80  56  43 S18       29.81F
6HR MIN TEMP:  77; 6HR MAX TEMP:  82;

O`NEILL        SUNNY     78  59  50 S9        29.80S
ORD            SUNNY     82  54  37 S16       29.79F
6HR MIN TEMP:  78; 6HR MAX TEMP:  84;

THEDFORD       CLOUDY    79  56  44 S8        29.81F
$$

NEZ041-046>049-061>064-073>077-083>087-310100-
SOUTH CENTRAL NEBRASKA

CITY           SKY/WX    TMP DP  RH WIND       PRES   REMARKS
GRAND ISLAND   SUNNY     81  58  45 S20       29.84S
6HR MIN TEMP:  78; 6HR MAX TEMP:  85;

AURORA         MOSUNNY   81  58  46 S15G22    29.84S
HASTINGS       SUNNY     80  59  48 S12G24    29.84F
6HR MIN TEMP:  78; 6HR MAX TEMP:  83;

HEBRON         SUNNY     81  58  46 S13G20    29.86S
HOLDREGE       SUNNY     78  53  41 S16G22    29.84F
KEARNEY *      SUNNY     81  55  41 S22       29.84S
YORK           SUNNY     81  57  44 S16G23    29.85S
$$

NEZ011>018-030>034-042>045-310100-
NORTHEAST NEBRASKA

CITY           SKY/WX    TMP DP  RH WIND       PRES   REMARKS
NORFOLK        SUNNY     82  56  40 S14       29.80F
6HR MIN TEMP:  80; 6HR MAX TEMP:  84;

ALBION         SUNNY     82  51  34 S15       29.81S
BLAIR          CLOUDY    75  64  69 SE15G23   29.85F
FREMONT        SUNNY     78  61  55 SE15      29.84F
TEKAMAH        MOSUNNY   73  62  68 SE22      29.84R
6HR MIN TEMP:  73; 6HR MAX TEMP:  91; 6HR PCP:  0.14;

WAYNE          SUNNY     83  57  41 SW16G22   29.80S
$$

NEZ050>053-065>068-078-088>093-310100-
SOUTHEAST NEBRASKA

CITY           SKY/WX    TMP DP  RH WIND       PRES   REMARKS
LINCOLN        SUNNY     84  55  36 S13       29.84F
6HR MIN TEMP:  82; 6HR MAX TEMP:  87; 6HR PCP: TRACE;

OMAHA EPPLEY   CLOUDY    71  64  78 SE20      29.86F
6HR MIN TEMP:  70; 6HR MAX TEMP:  88; 6HR PCP:  0.05;

BEATRICE       SUNNY     82  60  48 SW17      29.85F
FALLS CITY     LGT RAIN  75  67  76 SE12      29.87F
6HR MIN TEMP:  73; 6HR MAX TEMP:  86; 6HR PCP:  0.06;

NEBRASKA CITY  CLOUDY    70  61  75 E15G21    29.89R
PLATTSMOUTH    CLOUDY    75  65  71 E15       29.88F
$$

NEZ044-045-051>053-067-310100-
OMAHA AREA

CITY           SKY/WX    TMP DP  RH WIND       PRES   REMARKS
OMAHA EPPLEY   CLOUDY    71  64  78 SE20      29.86F
6HR MIN TEMP:  70; 6HR MAX TEMP:  88; 6HR PCP:  0.05;

BLAIR          CLOUDY    75  64  69 SE15G23   29.85F
FREMONT        SUNNY     78  61  55 SE15      29.84F
MILLARD        CLOUDY    75  62  64 E12G20    29.86S
OFFUTT AFB     CLOUDY    73  64  73 E8        29.87S
PLATTSMOUTH    CLOUDY    75  65  71 E15       29.88F
WAHOO          FAIR      77  62  59 SE16      29.84S
$$




USA.gov is the U.S. government's official web portal to all federal, state and local government web resources and services.